Regional Weather Roundup
Issued by NWS

Home | Current Version | Previous Version | Text Only | Print | Product List | Glossary On
Versions: 1 2 3 4 5 6 7 8 9 10 11 12 13 14 15 16 17 18 19 20 21 22 23 24 25 26 27 28 29 30 31 32 33 34 35 36 37 38 39 40 41 42 43 44 45 46 47 48 49 50
000
ASUS43 KMKX 260700
RWRWI

WISCONSIN REGIONAL WEATHER ROUNDUP
NATIONAL WEATHER SERVICE MILWAUKEE/SULLIVAN WI
200 AM CDT SUN APR 26 2015

NOTE: "FAIR" INDICATES FEW OR NO CLOUDS BELOW 12,000 FEET WITH NO
SIGNIFICANT WEATHER AND/OR OBSTRUCTIONS TO VISIBILITY.

WIZ001-002-006>008-014>016-023>028-260800-
NORTHWEST WISCONSIN

CITY           SKY/WX    TMP DP  RH WIND       PRES   REMARKS
SUPERIOR ARPT  CLEAR     33  22  64 E5        30.08R WCI  29
ASHLAND        CLEAR     27  23  85 NE5       30.08R WCI  22
HAYWARD        CLEAR     28  22  78 N3        30.05R
SIREN          CLEAR     33  21  62 NE5       30.05R WCI  28
CUMBERLAND     FAIR      34  21  60 N5        30.02R WCI  30
RICE LAKE      FAIR      35  22  60 N7        30.03R WCI  29
CHETEK         FAIR      40  23  51 NE6       30.02R
LADYSMITH      CLEAR     35  24  63 NE3       30.03R
EAU CLAIRE     NOT AVBL
MENOMONIE      CLEAR     39  21  48 N3        30.00S
NEW RICHMOND   FAIR      37  21  52 NE7       30.01S WCI  31
OSCEOLA        CLEAR     37  19  48 N3        30.05R
$$

WIZ003>005-009-010-017-018-260800-
NORTH CENTRAL WISCONSIN

CITY           SKY/WX    TMP DP  RH WIND       PRES   REMARKS
MANITOWISH WTR CLEAR     26  20  80 CALM      30.02R
ARBOR VITAE    CLEAR     29  19  68 N3        30.01R
WOODRUFF       CLEAR     29  19  68 N3        30.01R
RHINELANDER    CLEAR     31  20  63 N5        30.01R WCI  26
EAGLE RIVER    CLEAR     26  18  72 CALM      30.01R
LAND O LAKES   CLEAR     30  19  63 N5        30.02R WCI  25
PHILLIPS       CLEAR     31  22  70 N5        30.01R WCI  26
TOMAHAWK       CLEAR     28  21  75 CALM      30.01S
MEDFORD        CLEAR     34  22  62 CALM      30.00R
MERRILL        CLEAR     30  22  74 NE5       30.00R WCI  25
$$

WIZ029-030-035-036-043>047-260800-
CENTRAL WISCONSIN

CITY           SKY/WX    TMP DP  RH WIND       PRES   REMARKS
WAUSAU         CLEAR     35  21  56 N6        29.98R WCI  30
MOSINEE        CLEAR     36  21  55 NE7       29.99S WCI  30
MARSHFIELD     CLEAR     38  20  48 E5        29.98R WCI  34
STEVENS POINT  CLEAR     31  19  59 N3        29.99R
WAUPACA        CLEAR     38  22  51 CALM      29.98S
WAUTOMA        NOT AVBL
WISC RAPIDS    CLEAR     38  17  42 NE5       30.00R WCI  34
CAMP DOUGLAS   NOT AVBL
$$

WIZ011>013-019>022-031-037>040-048>050-260800-
NORTHEAST WISCONSIN

CITY           SKY/WX    TMP DP  RH WIND       PRES   REMARKS
ANTIGO         CLEAR     31  24  74 N5        29.99R WCI  26
SHAWANO        CLEAR     38  22  51 NE10      29.99S WCI  31
OCONTO         CLEAR     33  23  65 N6        30.00R WCI  28
STURGEON BAY   CLEAR     34  23  64 N8        30.00R WCI  27
GREEN BAY      CLEAR     36  23  59 N10       29.98R WCI  28
MANITOWOC      NOT AVBL
APPLETON       CLEAR     34  23  64 N10       29.97R WCI  26
CLINTONVILLE   CLEAR     34  21  60 N6        29.99R WCI  29
OSHKOSH        CLEAR     41  29  62 NE13      29.96R
$$

WIZ032>034-041-042-053>061-260800-
SOUTHWEST WISCONSIN

CITY           SKY/WX    TMP DP  RH WIND       PRES   REMARKS
LA CROSSE      CLEAR     40  26  57 CALM      29.99R
SPARTA         CLEAR     27  20  74 CALM      30.00R
VIROQUA        CLEAR     36  17  46 NE5       29.97R WCI  32
BOSCOBEL       CLEAR     29  25  85 CALM      29.98R
PRAIRIE DU CHI CLEAR     33  27  78 CALM      29.96R
PLATTEVILLE    CLEAR     38  25  59 NE6       29.94R WCI  33
$$

WIZ056-057-062-063-064-067-068-260800-
SOUTH CENTRAL WISCONSIN

CITY           SKY/WX    TMP DP  RH WIND       PRES   REMARKS
REEDSBURG      CLEAR     38  13  36 NE5       29.96R WCI  34
BARABOO/DELLS  CLEAR     36  11  36 NE5       29.95S WCI  32
LONE ROCK      NOT AVBL
MINERAL POINT  CLEAR     37  19  48 NE7       29.94R WCI  32
MADISON        CLEAR     33  22  63 MISG      29.94R
MIDDLETON      CLEAR     32  23  68 NW3       29.95R
WATERTOWN      CLEAR     35  24  63 N7        29.92R WCI  29
MONROE         CLEAR     36  27  69 N8        29.92R WCI  29
JANESVILLE     CLEAR     41  19  42 N7        29.90S
$$

WIZ051-052-058>065-066-070>072-260800-
SOUTHEAST WISCONSIN

CITY           SKY/WX    TMP DP  RH WIND       PRES   REMARKS
MILWAUKEE      CLEAR     38  30  73 N13       29.93R WCI  30
WAUKESHA       CLEAR     34  23  64 NE6       29.93R WCI  29
MILWAUKEE/TIMM CLEAR     37  28  70 NE8       29.94R WCI  31
RACINE         CLEAR     38  30  73 NE9       29.93R WCI  31
BURLINGTON     CLEAR     31  23  73 CALM      29.91R
KENOSHA        CLEAR     36  29  75 N7        29.91R WCI  30
FOND DU LAC    CLEAR     40  24  53 NE14      29.96R WCI  32
SHEBOYGAN      CLEAR     38  28  67 NE12      29.95R WCI  30
WEST BEND      CLEAR     36  25  64 NE5       29.94R WCI  32
JUNEAU         CLEAR     36  24  62 N9        29.94R WCI  29
$$

LSZ147-162-260800-
LAKE SUPERIOR

STATION/POSITION TIME  TEMP    WIND        PRES    WAVE
                       AIR SEA DIR/SP/G            HT/PER
                 (UTC) (F)     (DEG/KT/KT) (MB)    (FT/S)
W MID LAKE BUOY  0550   35 34  360/  4/  4 1019.9R   1/ 4
DEVILS ISLAND    0600   37      10/ 11/ 11 1019.4R
PORT WING        0600   29     110/  3/  4 1018.6R
SAXON HARBOR     0640   27        CALM     1018.3R
$$

LMZ867-665-643>646-260800-
LAKE MICHIGAN

STATION/POSITION TIME  TEMP    WIND        PRES    WAVE
                       AIR SEA DIR/SP/G            HT/PER
                 (UTC) (F)     (DEG/KT/KT) (MB)    (FT/S)
CHAMBERS ISLAND  0600   37     350/  9/ 13 1015.9S
NORTHPORT PIER   0600   37     350/  9/ 19 1015.6S
SISTER BAY       0647   35        CALM       N/A
KEWAUNEE LAKESHO 0618   39      30/ 12/ 16 1013.9R
SHEBOYGAN LAKESH 0600   40      20/ 17/ 18 1014.5R
PORT WASHINGTON  0600   42      20/  8/ 18 1014.2R
MILWAUKEE LAKESH 0600   40      10/ 12/ 14   N/A
KENOSHA   LAKESH 0600   41     360/ 13/ 15 1012.2R
$$

TC  - TEMPERATURE IN CELSIUS
VSB - VISIBILITY IN STATUTE MILES
WCI - WIND CHILL INDEX
HX  - HEAT INDEX



USA.gov is the U.S. government's official web portal to all federal, state and local government web resources and services.